AAL501 KMIA-MBPV

Flight info

Callsign AAL501
Flight time 1h 15m
Altitude 37000
Route KLADA2 BITAC DCT SOLEI
Aircraft B738/M-SDE2E3FGHIRWXY/LB1

Departure

Time 2026-04-26 01:03
Airport Miami International Airport (KMIA)

Arrival

Time 2026-04-26 02:19
Airport Providenciales International Airport (MBPV)
Time Latitude Longitude Altitude Speed Heading
2026-04-26 00:41 25.79825 -80.28415 14 ft 0 kts 177°
2026-04-26 00:55 25.79826 -80.28415 14 ft 1 kts 177°
2026-04-26 00:55 25.79849 -80.28416 14 ft 4 kts 177°
2026-04-26 00:56 25.79870 -80.28417 14 ft 4 kts 200°
2026-04-26 00:56 25.79884 -80.28400 14 ft 4 kts 265°
2026-04-26 00:56 25.79885 -80.28373 14 ft 3 kts 267°
2026-04-26 00:56 25.79885 -80.28371 14 ft 1 kts 267°
2026-04-26 00:58 25.79885 -80.28376 14 ft 4 kts 267°
2026-04-26 00:58 25.79899 -80.28424 16 ft 9 kts 331°
2026-04-26 00:59 25.79949 -80.28485 14 ft 14 kts 278°
2026-04-26 00:59 25.80018 -80.28566 16 ft 17 kts 304°
2026-04-26 00:59 25.80020 -80.28712 15 ft 22 kts 267°
2026-04-26 00:59 25.80011 -80.28900 15 ft 27 kts 267°
2026-04-26 01:00 25.80002 -80.29113 15 ft 27 kts 268°
2026-04-26 01:00 25.79995 -80.29317 15 ft 26 kts 268°
2026-04-26 01:00 25.79987 -80.29509 13 ft 24 kts 267°
2026-04-26 01:00 25.79979 -80.29688 13 ft 23 kts 267°
2026-04-26 01:01 25.79972 -80.29861 13 ft 22 kts 268°
2026-04-26 01:01 25.79969 -80.29943 12 ft 1 kts 267°
2026-04-26 01:01 25.79968 -80.29970 12 ft 9 kts 267°
2026-04-26 01:01 25.79974 -80.30075 13 ft 17 kts 294°
2026-04-26 01:02 25.80059 -80.30117 13 ft 15 kts 45°
2026-04-26 01:02 25.80074 -80.30072 12 ft 0 kts 85°
2026-04-26 01:02 25.80075 -80.30046 12 ft 20 kts 88°
2026-04-26 01:03 25.80092 -80.29612 13 ft 91 kts 87°
2026-04-26 01:03 25.80133 -80.28679 18 ft 149 kts 87°
2026-04-26 01:03 25.80186 -80.27425 395 ft 169 kts 89°
2026-04-26 01:03 25.80251 -80.26107 1103 ft 174 kts 93°
2026-04-26 01:04 25.80134 -80.24696 1535 ft 198 kts 99°
2026-04-26 01:04 25.79640 -80.23182 1692 ft 224 kts 124°
2026-04-26 01:04 25.78721 -80.21670 1941 ft 249 kts 123°
2026-04-26 01:04 25.77787 -80.19983 2491 ft 262 kts 121°
2026-04-26 01:05 25.76875 -80.18236 3292 ft 263 kts 121°
2026-04-26 01:05 25.75992 -80.16437 4031 ft 269 kts 120°
2026-04-26 01:05 25.75076 -80.14623 4871 ft 269 kts 119°
2026-04-26 01:05 25.74173 -80.12777 5566 ft 277 kts 118°
2026-04-26 01:06 25.73252 -80.10879 6294 ft 281 kts 116°
2026-04-26 01:06 25.72487 -80.08877 7004 ft 284 kts 109°
2026-04-26 01:06 25.71823 -80.06798 7702 ft 288 kts 109°
2026-04-26 01:06 25.71145 -80.04695 8400 ft 292 kts 109°
2026-04-26 01:07 25.70447 -80.02566 9055 ft 298 kts 109°
2026-04-26 01:07 25.69743 -80.00389 9773 ft 301 kts 108°
2026-04-26 01:07 25.69042 -79.98184 10379 ft 308 kts 108°
2026-04-26 01:07 25.68300 -79.95863 10540 ft 331 kts 109°
2026-04-26 01:08 25.67500 -79.93397 10862 ft 346 kts 109°
2026-04-26 01:08 25.66670 -79.90865 11426 ft 352 kts 109°
2026-04-26 01:08 25.65824 -79.88302 12076 ft 356 kts 109°
2026-04-26 01:08 25.64965 -79.85715 12738 ft 360 kts 109°
2026-04-26 01:09 25.64095 -79.83098 13388 ft 365 kts 109°
2026-04-26 01:09 25.63211 -79.80443 14019 ft 370 kts 109°
2026-04-26 01:09 25.62309 -79.77762 14664 ft 372 kts 109°
2026-04-26 01:09 25.61402 -79.75057 15304 ft 376 kts 109°
2026-04-26 01:10 25.60497 -79.72326 15931 ft 380 kts 109°
2026-04-26 01:10 25.59577 -79.69557 16550 ft 385 kts 110°
2026-04-26 01:10 25.58603 -79.66779 17174 ft 389 kts 111°
2026-04-26 01:10 25.57584 -79.63989 17804 ft 393 kts 112°
2026-04-26 01:11 25.56544 -79.61178 18411 ft 396 kts 112°
2026-04-26 01:11 25.55493 -79.58343 18926 ft 401 kts 112°
2026-04-26 01:11 25.54431 -79.55469 19462 ft 404 kts 112°
2026-04-26 01:11 25.53364 -79.52572 19993 ft 408 kts 112°
2026-04-26 01:12 25.52304 -79.49688 20521 ft 412 kts 112°
2026-04-26 01:12 25.51221 -79.46739 21045 ft 415 kts 112°
2026-04-26 01:12 25.50130 -79.43765 21543 ft 419 kts 112°
2026-04-26 01:12 25.49028 -79.40762 22057 ft 422 kts 112°
2026-04-26 01:13 25.47905 -79.37705 22579 ft 425 kts 112°
2026-04-26 01:13 25.46800 -79.34697 23049 ft 429 kts 112°
2026-04-26 01:13 25.45672 -79.31629 23526 ft 433 kts 112°
2026-04-26 01:13 25.44534 -79.28538 23937 ft 435 kts 112°
2026-04-26 01:14 25.43388 -79.25427 24378 ft 437 kts 111°
2026-04-26 01:14 25.42240 -79.22311 24816 ft 439 kts 111°
2026-04-26 01:14 25.41084 -79.19177 25233 ft 441 kts 111°
2026-04-26 01:14 25.39923 -79.16033 25635 ft 443 kts 111°
2026-04-26 01:15 25.38754 -79.12868 26031 ft 445 kts 111°
2026-04-26 01:15 25.37580 -79.09692 26414 ft 448 kts 111°
2026-04-26 01:15 25.36398 -79.06499 26809 ft 450 kts 111°
2026-04-26 01:15 25.35210 -79.03290 27172 ft 453 kts 111°
2026-04-26 01:16 25.34012 -79.00058 27513 ft 455 kts 111°
2026-04-26 01:16 25.32809 -78.96814 27879 ft 457 kts 110°
2026-04-26 01:16 25.31600 -78.93555 28243 ft 459 kts 110°
2026-04-26 01:16 25.30384 -78.90284 28590 ft 461 kts 110°
2026-04-26 01:17 25.29161 -78.86993 28910 ft 464 kts 110°
2026-04-26 01:17 25.27933 -78.83692 29249 ft 466 kts 110°
2026-04-26 01:17 25.26698 -78.80375 29581 ft 468 kts 110°
2026-04-26 01:17 25.25456 -78.77044 29902 ft 470 kts 110°
2026-04-26 01:18 25.24210 -78.73703 30188 ft 472 kts 110°
2026-04-26 01:18 25.22956 -78.70343 30441 ft 474 kts 110°
2026-04-26 01:18 25.21694 -78.66968 30687 ft 477 kts 111°
2026-04-26 01:18 25.20397 -78.63586 30866 ft 480 kts 109°
2026-04-26 01:19 25.19148 -78.60158 31107 ft 482 kts 110°
2026-04-26 01:19 25.17873 -78.56736 31400 ft 482 kts 111°
2026-04-26 01:19 25.16535 -78.53347 31736 ft 481 kts 113°
2026-04-26 01:19 25.15153 -78.49988 32098 ft 480 kts 114°
2026-04-26 01:20 25.13757 -78.46643 32436 ft 479 kts 114°
2026-04-26 01:20 25.12360 -78.43303 32740 ft 479 kts 114°
2026-04-26 01:20 25.10969 -78.39964 33056 ft 479 kts 114°
2026-04-26 01:20 25.09586 -78.36625 33376 ft 478 kts 114°
2026-04-26 01:21 25.08210 -78.33293 33686 ft 477 kts 114°
2026-04-26 01:21 25.06837 -78.29959 33979 ft 478 kts 114°
2026-04-26 01:21 25.05461 -78.26619 34213 ft 478 kts 115°
2026-04-26 01:21 25.04087 -78.23285 34423 ft 479 kts 115°
2026-04-26 01:22 25.02706 -78.19936 34635 ft 480 kts 115°
2026-04-26 01:22 25.01324 -78.16588 34846 ft 480 kts 115°
2026-04-26 01:22 24.99939 -78.13236 35067 ft 480 kts 115°
2026-04-26 01:22 24.98554 -78.09886 35267 ft 481 kts 115°
2026-04-26 01:23 24.97183 -78.06575 35468 ft 482 kts 115°
2026-04-26 01:23 24.95791 -78.03214 35676 ft 482 kts 115°
2026-04-26 01:23 24.94395 -77.99849 35879 ft 483 kts 115°
2026-04-26 01:23 24.93000 -77.96486 36071 ft 483 kts 115°
2026-04-26 01:24 24.91599 -77.93112 36256 ft 485 kts 115°
2026-04-26 01:24 24.90195 -77.89734 36422 ft 486 kts 115°
2026-04-26 01:24 24.88788 -77.86349 36628 ft 486 kts 115°
2026-04-26 01:24 24.87380 -77.82967 36836 ft 486 kts 115°
2026-04-26 01:25 24.85971 -77.79584 36972 ft 487 kts 115°
2026-04-26 01:25 24.84553 -77.76182 36963 ft 490 kts 115°
2026-04-26 01:25 24.81714 -77.69377 36947 ft 487 kts 116°
2026-04-26 01:26 24.78892 -77.62623 36967 ft 485 kts 116°
2026-04-26 01:26 24.76077 -77.55896 36972 ft 484 kts 116°
2026-04-26 01:27 24.72834 -77.49439 36986 ft 481 kts 126°
2026-04-26 01:27 24.68993 -77.43421 36973 ft 481 kts 128°
2026-04-26 01:28 24.65102 -77.37424 36976 ft 483 kts 127°
2026-04-26 01:28 24.61257 -77.31351 36976 ft 485 kts 127°
2026-04-26 01:29 24.57437 -77.25226 36977 ft 487 kts 126°
2026-04-26 01:29 24.53610 -77.19072 36979 ft 489 kts 127°
2026-04-26 01:30 24.49769 -77.12907 36978 ft 490 kts 127°
2026-04-26 01:30 24.45909 -77.06725 36976 ft 491 kts 127°
2026-04-26 01:31 24.42065 -77.00579 36972 ft 492 kts 128°
2026-04-26 01:31 24.38186 -76.94386 36972 ft 493 kts 128°
2026-04-26 01:32 24.34293 -76.88180 36978 ft 494 kts 128°
2026-04-26 01:32 24.30391 -76.81963 36976 ft 496 kts 128°
2026-04-26 01:33 24.26473 -76.75732 36978 ft 497 kts 128°
2026-04-26 01:33 24.22549 -76.69497 36976 ft 497 kts 128°
2026-04-26 01:34 24.18618 -76.63259 36975 ft 498 kts 128°
2026-04-26 01:34 24.14683 -76.57023 36974 ft 497 kts 128°
2026-04-26 01:35 24.10750 -76.50797 36974 ft 497 kts 128°
2026-04-26 01:35 24.06818 -76.44581 36967 ft 496 kts 129°
2026-04-26 01:36 24.03524 -76.39380 36974 ft 496 kts 129°
2026-04-26 01:37 23.97657 -76.30130 36975 ft 495 kts 129°
2026-04-26 01:37 23.93731 -76.23950 36975 ft 495 kts 129°
2026-04-26 01:38 23.89802 -76.17772 36975 ft 495 kts 129°
2026-04-26 01:38 23.85873 -76.11603 36974 ft 495 kts 129°
2026-04-26 01:39 23.81938 -76.05432 36977 ft 495 kts 129°
2026-04-26 01:39 23.78002 -75.99265 36976 ft 495 kts 129°
2026-04-26 01:40 23.74057 -75.93094 36977 ft 496 kts 129°
2026-04-26 01:40 23.70108 -75.86924 36975 ft 496 kts 130°
2026-04-26 01:41 23.66146 -75.80741 36977 ft 498 kts 130°
2026-04-26 01:41 23.62166 -75.74538 36975 ft 500 kts 130°
2026-04-26 01:42 23.58174 -75.68324 36980 ft 502 kts 130°
2026-04-26 01:42 23.54160 -75.62081 36980 ft 504 kts 130°
2026-04-26 01:43 23.50128 -75.55819 36977 ft 505 kts 130°
2026-04-26 01:43 23.46089 -75.49553 36974 ft 506 kts 130°
2026-04-26 01:44 23.42045 -75.43286 36972 ft 506 kts 130°
2026-04-26 01:44 23.38000 -75.37026 36968 ft 505 kts 131°
2026-04-26 01:45 23.33786 -75.30974 36959 ft 498 kts 137°
2026-04-26 01:45 23.29885 -75.24724 37000 ft 503 kts 130°
2026-04-26 01:46 23.25947 -75.18435 36978 ft 503 kts 131°
2026-04-26 01:46 23.21921 -75.12190 36976 ft 504 kts 131°
2026-04-26 01:47 23.17860 -75.05961 36976 ft 506 kts 132°
2026-04-26 01:47 23.15821 -75.02838 36788 ft 510 kts 132°
2026-04-26 01:47 23.13758 -74.99681 36279 ft 513 kts 131°
2026-04-26 01:47 23.11701 -74.96526 35776 ft 510 kts 131°
2026-04-26 01:48 23.09664 -74.93398 35401 ft 505 kts 131°
2026-04-26 01:48 23.07646 -74.90298 34997 ft 501 kts 131°
2026-04-26 01:48 23.05639 -74.87218 34598 ft 497 kts 131°
2026-04-26 01:48 23.03648 -74.84166 34202 ft 494 kts 131°
2026-04-26 01:49 23.01670 -74.81140 33769 ft 490 kts 131°
2026-04-26 01:49 22.99705 -74.78125 33273 ft 488 kts 130°
2026-04-26 01:49 22.97736 -74.75179 32941 ft 478 kts 133°
2026-04-26 01:49 22.95800 -74.72261 32442 ft 477 kts 132°
2026-04-26 01:50 22.93864 -74.69322 31762 ft 480 kts 133°
2026-04-26 01:50 22.91877 -74.66411 31234 ft 479 kts 134°
2026-04-26 01:50 22.89845 -74.63583 30959 ft 470 kts 135°
2026-04-26 01:50 22.87787 -74.60887 30813 ft 458 kts 138°
2026-04-26 01:51 22.85699 -74.58335 30578 ft 449 kts 140°
2026-04-26 01:51 22.83542 -74.55895 30153 ft 446 kts 142°
2026-04-26 01:51 22.81302 -74.53572 29516 ft 446 kts 145°
2026-04-26 01:51 22.78969 -74.51367 28954 ft 443 kts 148°
2026-04-26 01:52 22.76583 -74.49313 28596 ft 431 kts 151°
2026-04-26 01:52 22.74193 -74.47440 28297 ft 419 kts 154°
2026-04-26 01:52 22.71855 -74.45562 27969 ft 421 kts 145°
2026-04-26 01:52 22.69782 -74.43327 27742 ft 420 kts 139°
2026-04-26 01:53 22.67998 -74.40824 27521 ft 420 kts 130°
2026-04-26 01:53 22.66372 -74.38195 27162 ft 419 kts 129°
2026-04-26 01:53 22.64787 -74.35553 26772 ft 419 kts 129°
2026-04-26 01:53 22.63200 -74.32892 26421 ft 422 kts 129°
2026-04-26 01:54 22.61602 -74.30222 26060 ft 422 kts 129°
2026-04-26 01:54 22.60005 -74.27567 25688 ft 420 kts 129°
2026-04-26 01:54 22.58410 -74.24931 25312 ft 417 kts 129°
2026-04-26 01:54 22.56822 -74.22318 24953 ft 415 kts 129°
2026-04-26 01:55 22.55237 -74.19719 24588 ft 413 kts 129°
2026-04-26 01:55 22.53655 -74.17130 24206 ft 412 kts 129°
2026-04-26 01:55 22.52080 -74.14555 23848 ft 410 kts 129°
2026-04-26 01:55 22.50509 -74.11990 23447 ft 409 kts 129°
2026-04-26 01:56 22.48943 -74.09434 23034 ft 406 kts 129°
2026-04-26 01:56 22.47392 -74.06901 22642 ft 403 kts 128°
2026-04-26 01:56 22.45848 -74.04381 22269 ft 400 kts 128°
2026-04-26 01:56 22.44317 -74.01884 21904 ft 397 kts 128°
2026-04-26 01:57 22.42801 -73.99411 21543 ft 393 kts 128°
2026-04-26 01:57 22.41294 -73.96957 21187 ft 390 kts 128°
2026-04-26 01:57 22.39800 -73.94522 20824 ft 387 kts 128°
2026-04-26 01:57 22.38316 -73.92108 20486 ft 384 kts 128°
2026-04-26 01:58 22.36844 -73.89712 20141 ft 381 kts 127°
2026-04-26 01:58 22.35381 -73.87334 19798 ft 379 kts 127°
2026-04-26 01:58 22.33927 -73.84970 19454 ft 376 kts 127°
2026-04-26 01:58 22.32482 -73.82622 19112 ft 374 kts 127°
2026-04-26 01:59 22.31048 -73.80293 18776 ft 372 kts 127°
2026-04-26 01:59 22.29619 -73.77975 18434 ft 369 kts 127°
2026-04-26 01:59 22.28201 -73.75673 18072 ft 367 kts 127°
2026-04-26 01:59 22.26789 -73.73383 17687 ft 365 kts 127°
2026-04-26 02:00 22.25388 -73.71111 17332 ft 362 kts 127°
2026-04-26 02:00 22.23998 -73.68857 16992 ft 359 kts 127°
2026-04-26 02:00 22.22621 -73.66626 16662 ft 356 kts 126°
2026-04-26 02:00 22.21259 -73.64419 16360 ft 352 kts 127°
2026-04-26 02:01 22.19922 -73.62255 16024 ft 350 kts 126°
2026-04-26 02:01 22.18560 -73.60051 15691 ft 347 kts 126°
2026-04-26 02:01 22.17240 -73.57916 15366 ft 345 kts 126°
2026-04-26 02:01 22.15894 -73.55740 15043 ft 343 kts 126°
2026-04-26 02:02 22.14591 -73.53636 14726 ft 341 kts 126°
2026-04-26 02:02 22.13262 -73.51488 14408 ft 339 kts 126°
2026-04-26 02:02 22.11957 -73.49382 14093 ft 337 kts 126°
2026-04-26 02:02 22.10659 -73.47285 13770 ft 335 kts 126°
2026-04-26 02:03 22.09367 -73.45201 13429 ft 333 kts 126°
2026-04-26 02:03 22.08082 -73.43128 13095 ft 331 kts 126°
2026-04-26 02:03 22.06824 -73.41100 12779 ft 329 kts 126°
2026-04-26 02:03 22.05542 -73.39033 12468 ft 326 kts 126°
2026-04-26 02:04 22.04286 -73.37009 12169 ft 323 kts 126°
2026-04-26 02:04 22.03056 -73.35029 11867 ft 321 kts 126°
2026-04-26 02:04 22.01820 -73.33038 11563 ft 319 kts 126°
2026-04-26 02:04 22.00592 -73.31062 11266 ft 317 kts 125°
2026-04-26 02:05 21.99370 -73.29095 10957 ft 315 kts 126°
2026-04-26 02:05 21.98156 -73.27143 10656 ft 313 kts 125°
2026-04-26 02:05 21.96950 -73.25205 10372 ft 311 kts 125°
2026-04-26 02:05 21.95752 -73.23279 10160 ft 306 kts 125°
2026-04-26 02:06 21.94585 -73.21403 10033 ft 298 kts 125°
2026-04-26 02:06 21.93443 -73.19568 9829 ft 294 kts 125°
2026-04-26 02:06 21.92309 -73.17747 9540 ft 292 kts 125°
2026-04-26 02:06 21.91183 -73.15941 9275 ft 289 kts 125°
2026-04-26 02:07 21.90065 -73.14147 9014 ft 287 kts 125°
2026-04-26 02:07 21.88955 -73.12366 8744 ft 286 kts 125°
2026-04-26 02:07 21.87851 -73.10597 8480 ft 284 kts 125°
2026-04-26 02:07 21.86755 -73.08838 8216 ft 282 kts 125°
2026-04-26 02:08 21.85662 -73.07087 7947 ft 281 kts 125°
2026-04-26 02:08 21.84575 -73.05345 7676 ft 280 kts 125°
2026-04-26 02:08 21.83491 -73.03610 7403 ft 279 kts 125°
2026-04-26 02:08 21.82411 -73.01879 7129 ft 278 kts 123°
2026-04-26 02:09 21.81714 -72.99958 6891 ft 277 kts 97°
2026-04-26 02:09 21.81556 -72.97905 6759 ft 276 kts 94°
2026-04-26 02:09 21.81436 -72.95839 6573 ft 277 kts 93°
2026-04-26 02:09 21.81335 -72.93763 6426 ft 278 kts 92°
2026-04-26 02:10 21.81198 -72.91689 6265 ft 278 kts 96°
2026-04-26 02:10 21.81028 -72.89618 6104 ft 278 kts 93°
2026-04-26 02:10 21.80902 -72.87542 5931 ft 278 kts 93°
2026-04-26 02:10 21.80778 -72.85466 5762 ft 278 kts 96°
2026-04-26 02:11 21.80621 -72.83392 5584 ft 278 kts 93°
2026-04-26 02:11 21.80515 -72.81327 5415 ft 275 kts 93°
2026-04-26 02:11 21.80391 -72.79322 5244 ft 270 kts 96°
2026-04-26 02:11 21.80242 -72.77321 5082 ft 268 kts 94°
2026-04-26 02:12 21.80129 -72.75318 4903 ft 269 kts 92°
2026-04-26 02:12 21.80035 -72.73311 4754 ft 269 kts 94°
2026-04-26 02:12 21.79949 -72.71306 4580 ft 267 kts 94°
2026-04-26 02:12 21.79823 -72.69318 4418 ft 265 kts 94°
2026-04-26 02:13 21.79660 -72.67348 4249 ft 264 kts 94°
2026-04-26 02:13 21.79539 -72.65380 4085 ft 263 kts 93°
2026-04-26 02:13 21.79424 -72.63422 3914 ft 262 kts 93°
2026-04-26 02:13 21.79304 -72.61476 3759 ft 260 kts 93°
2026-04-26 02:14 21.79182 -72.59542 3600 ft 258 kts 94°
2026-04-26 02:14 21.79060 -72.57619 3443 ft 257 kts 94°
2026-04-26 02:14 21.78937 -72.55706 3293 ft 255 kts 94°
2026-04-26 02:14 21.78815 -72.53821 3119 ft 250 kts 94°
2026-04-26 02:15 21.78696 -72.51972 2959 ft 245 kts 94°
2026-04-26 02:15 21.78578 -72.50167 2806 ft 239 kts 93°
2026-04-26 02:15 21.78463 -72.48402 2659 ft 233 kts 94°
2026-04-26 02:15 21.78331 -72.46681 2513 ft 228 kts 94°
2026-04-26 02:16 21.78255 -72.44999 2381 ft 222 kts 89°
2026-04-26 02:16 21.78219 -72.43356 2236 ft 218 kts 94°
2026-04-26 02:16 21.78127 -72.41775 2121 ft 210 kts 90°
2026-04-26 02:16 21.78053 -72.40250 1999 ft 198 kts 94°
2026-04-26 02:17 21.77917 -72.38818 1874 ft 187 kts 94°
2026-04-26 02:17 21.77915 -72.37467 1765 ft 173 kts 89°
2026-04-26 02:17 21.77875 -72.36196 1607 ft 169 kts 94°
2026-04-26 02:17 21.77787 -72.34938 1399 ft 166 kts 92°
2026-04-26 02:18 21.77709 -72.33693 1134 ft 164 kts 93°
2026-04-26 02:18 21.77639 -72.32510 914 ft 152 kts 93°
2026-04-26 02:18 21.77583 -72.31424 700 ft 143 kts 92°
2026-04-26 02:18 21.77538 -72.30343 469 ft 147 kts 90°
2026-04-26 02:19 21.77483 -72.29231 267 ft 149 kts 92°
2026-04-26 02:19 21.77432 -72.28119 50 ft 147 kts 91°
2026-04-26 02:19 21.77392 -72.27282 29 ft 33 kts 93°
2026-04-26 02:19 21.77389 -72.27106 28 ft 12 kts 76°
2026-04-26 02:20 21.77455 -72.27070 28 ft 11 kts
2026-04-26 02:20 21.77472 -72.27070 28 ft 0 kts
2026-04-26 02:20 21.77477 -72.27070 28 ft 2 kts
2026-04-26 02:21 21.77505 -72.27098 30 ft 9 kts 279°
2026-04-26 02:21 21.77523 -72.27169 29 ft 2 kts 322°
2026-04-26 02:21 21.77536 -72.27170 29 ft 4 kts
2026-04-26 02:21 21.77564 -72.27153 28 ft 0 kts 36°
2026-04-26 02:22 21.77569 -72.27149 28 ft 0 kts 36°